Location: New Canada
(47.1017°N, 68.5042°W)
Time: 13:53:43
(UTC+00:00)

UKube-1 - Visible Passes

Search period start: 13 April 2024 00:00
Search period end: 23 April 2024 00:00
Orbit: 588 x 592 km, 98.3° (Epoch: 12 April)

Date Brightness Start Highest point End Pass type
(mag) Time Alt. Az. Time Alt. Az. Time Alt. Az.
13 Apr ? 05:23:38 10° NNE 05:25:27 25° NNE 05:25:27 25° NNE visible
13 Apr ? 07:00:18 10° NNW 07:02:00 15° NW 07:02:00 15° NW visible
14 Apr ? 05:31:41 10° NNE 05:33:43 28° NNE 05:33:43 28° NNE visible
14 Apr ? 07:08:45 10° NNW 07:10:16 13° NW 07:10:16 13° NW visible
15 Apr ? 05:39:44 10° NNE 05:41:58 31° NNE 05:41:58 31° NNE visible
15 Apr ? 07:17:24 10° NW 07:18:31 11° NW 07:18:31 11° NW visible
16 Apr ? 05:47:48 10° N 05:50:12 33° N 05:50:12 33° N visible
17 Apr ? 05:55:52 10° N 05:58:26 35° N 05:58:26 35° N visible
18 Apr ? 04:29:33 10° NE 04:30:05 12° ENE 04:30:05 12° ENE visible
18 Apr ? 06:03:56 10° N 06:06:38 35° NNW 06:06:38 35° NNW visible
19 Apr ? 04:37:15 10° NE 04:38:17 14° ENE 04:38:17 14° ENE visible
19 Apr ? 06:12:00 10° N 06:14:50 34° NNW 06:14:50 34° NNW visible
20 Apr ? 04:45:01 10° NE 04:46:28 17° ENE 04:46:28 17° ENE visible
20 Apr ? 06:20:05 10° N 06:23:00 32° NW 06:23:00 32° NW visible
21 Apr ? 04:52:48 10° NE 04:54:37 20° ENE 04:54:37 20° ENE visible
21 Apr ? 06:28:10 10° N 06:31:10 29° NW 06:31:10 29° NW visible
22 Apr ? 05:00:38 10° NNE 05:02:46 24° NE 05:02:46 24° NE visible
22 Apr ? 06:36:16 10° N 06:39:19 26° NW 06:39:19 26° NW visible
